x

South Brooks (46132) Wave Buoy

12:00 - Fri 1st Jul 2016 All times are PDT. -7 hours from GMT.

  • Sig Wave height 3.6ft
  • Peak Period 18s
  • Wind
    20mph, 22mph gusts
  • Sea Temp 57°f
  • Air Temp 62°f
  • Sea Pressure 1017.8mb
  • South Brooks
  • South Brooks

More Historic Weather Station data

Upgrade to MSW Pro to gain access to the past 30 days of data for over 8000 Wavebouys and Weather Stations around the globe.

Join Pro

Comparision Forecast

View Surf forecast
   
ven. 07/01 12:00 3.5ft 18s 20 22 mph 1017.8mb 57f 62f
jeu. 06/30 11:00 3ft 18s 20 22 mph 1018.2mb 58f 62f
10:00 2.5ft 18s 20 22 mph 1018.9mb 58f 62f
9:00 2.5ft 18s 16 18 mph 1019.9mb 58f 62f
8:00 3ft 18s 13 16 mph 1020.6mb 58f 63f
7:00 2.5ft 18s 11 13 mph 1021.1mb 58f 63f
6:00 2.5ft 18s 11 13 mph 1021.8mb 58f 63f
5:00 3ft 6s 9 11 mph 1022.8mb 58f 63f
3:00 3ft 6s 7 9 mph 1023.9mb 59f 62f
2:00 3ft 6s 4 7 mph 1024.2mb 59f 62f
1:00 3.5ft 5s 4
mph
1024.2mb 58f 62f
12:00 3.5ft 5s 4 7 mph 1024.5mb 58f 61f
11:00 3.5ft 6s 4
mph
1024.4mb 57f 62f
10:00 3.5ft 6s 7 9 mph 1024.3mb 57f 61f
9:00 3.5ft 20s 9 11 mph 1024.3mb 57f 61f
8:00 3ft 6s 9
mph
1024.1mb 56f 61f
7:00 3ft 6s 9 11 mph 1024.3mb 56f 61f
6:00 3ft 6s 9
mph
1024.3mb 56f 61f
5:00 3ft 20s 4 7 mph 1024.4mb 56f 60f
4:00 3.5ft 20s 9 11 mph 1024.2mb 55f 61f
3:00 3.5ft 20s 9 11 mph 1024.3mb 55f 61f
2:00 3.5ft 20s 9
mph
1024.1mb 56f 60f
1:00 3.5ft 7s 11 13 mph 1023.9mb 56f 60f
12:00 3.5ft 6s 13 18 mph 1023.7mb 56f 61f
mer. 06/29 11:00 4ft 6s 9 11 mph 1023.9mb 56f 61f
10:00 3.5ft 15s 2 4 mph 1023.9mb 56f 60f
9:00 2.5ft 14s 2 4 mph 1023.7mb 56f 60f
8:00 2.5ft 14s 4
mph
1023.7mb 56f 62f
7:00 2.5ft 15s 2 4 mph 1023.8mb 56f 61f
6:00 2.5ft 14s 4 7 mph 1024.2mb 56f 62f
5:00 2.5ft 15s 4
mph
1024.2mb 56f 63f
4:00 2.5ft 15s 4 7 mph 1024.3mb 56f 62f
3:00 2.5ft 15s 9
mph
1024.5mb 56f 62f
2:00 2.5ft 15s 9
mph
1024.3mb 56f 62f
1:00 2.5ft 15s 9 11 mph 1024.1mb 56f 62f
12:00 2.5ft 15s 9 11 mph 1024.1mb 56f 62f
11:00 3ft 14s 9 11 mph 1023.6mb 55f 61f
10:00 3.5ft 15s 11 13 mph 1023.5mb 55f 61f
9:00 3.5ft 16s 11 13 mph 1023.4mb 55f 61f
8:00 3.5ft 4s 18 20 mph 1023.1mb 54f 60f
7:00 4ft 4s 18 22 mph 1022.8mb 54f 61f
6:00 4.5ft 4s 20 25 mph 1022.6mb 54f 60f
5:00 4.5ft 5s 22 25 mph 1022.8mb 54f 61f
4:00 4.5ft 5s 22 27 mph 1022.6mb 54f 61f
3:00 5ft 5s 22 27 mph 1022.7mb 55f 61f
2:00 5ft 5s 25 29 mph 1022.6mb 55f 61f
1:00 5ft 5s 25 29 mph 1022.3mb 55f 61f
12:00 5ft 5s 27 29 mph 1022.3mb 55f 61f
mar. 06/28 11:00 5.5ft 5s 25 31 mph 1022.3mb 55f 61f
10:00 5ft 5s 25 29 mph 1022.5mb 55f 62f
9:00 5.5ft 5s 25 31 mph 1022.2mb 55f 62f
8:00 6ft 5s 25 29 mph 1022.3mb 55f 62f
7:00 6ft 6s 25 29 mph 1022.4mb 55f 62f
6:00 6ft 5s 25 29 mph 1022.4mb 54f 62f
5:00 6ft 5s 25 29 mph 1022.8mb 55f 62f
4:00 5.5ft 5s 25 29 mph 1023.1mb 55f 62f
3:00 5ft 5s 22 27 mph 1023.5mb 55f 62f
2:00 5ft 16s 22 27 mph 1023.7mb 55f 62f
1:00 5ft 5s 22 27 mph 1023.8mb 55f 62f
12:00 5ft 9s 22 27 mph 1023.6mb 56f 62f
11:00 5ft 5s 20 25 mph 1023.7mb 56f 61f
10:00 5ft 5s 20 25 mph 1023.6mb 56f 61f
9:00 5ft 5s 22 27 mph 1023.4mb 56f 61f
8:00 6ft 5s 22 27 mph 1023.3mb 55f 62f
7:00 6ft 6s 25 29 mph 1023.2mb 55f 61f
6:00 6ft 6s 25 31 mph 1022.9mb 55f 61f
5:00 7ft 6s 25 29 mph 1022.6mb 54f 61f
4:00 6.5ft 6s 25 29 mph 1022.4mb 55f 61f
3:00 7ft 6s 25 31 mph 1022.5mb 55f 60f
2:00 7.5ft 6s 27 34 mph 1022.5mb 55f 60f
1:00 7ft 6s 27 34 mph 1022.4mb 56f 61f
12:00 7.5ft 6s 27 34 mph 1022.5mb 56f 60f
lun. 06/27 11:00 7ft 6s 27 34 mph 1022.5mb 56f 61f
10:00 7.5ft 6s 27 34 mph 1022.5mb 56f 60f
9:00 7ft 6s 29 36 mph 1022.1mb 57f 60f
8:00 8ft 6s 29 36 mph 1022mb 57f 60f
7:00 8ft 6s 29 34 mph 1022.1mb 57f 60f
6:00 8ft 6s 27 36 mph 1022.1mb 57f 60f
5:00 8ft 6s 27 34 mph 1022.3mb 57f 60f
4:00 7ft 6s 27 34 mph 1022.7mb 57f 60f
3:00 7.5ft 6s 25 31 mph 1022.9mb 57f 60f
2:00 7ft 6s 27 31 mph 1022.9mb 57f 60f
1:00 7ft 6s 25 29 mph 1022.9mb 57f 59f
12:00 6.5ft 10s 22 29 mph 1022.8mb 57f 59f
11:00 7ft 6s 25 29 mph 1022.6mb 57f 58f
10:00 7ft 6s 27 31 mph 1022mb 57f 58f
9:00 7.5ft 6s 25 31 mph 1022.1mb 57f 58f